• In Hungary
  • List of Countries
  • For 7 days
  • Water Temperature
  • Satellite Maps
  • Weather Map
  • News
  • Weather Widgets
  • user-avatar
    Login

    Hourly Weather Kuleshiha

    Today, 21 August, Tuesday

    Time Temperature Precipitation Wind Pressure Humidity
    00:00 +17°C° 0 mm 4 mps 734 mmHg 91%
    01:00 +17°C° 0 mm 4 mps 733 mmHg 90%
    02:00 +17°C° 0 mm 4 mps 732 mmHg 91%
    03:00 +17°C° 0.7 mm 4 mps 732 mmHg 92%
    04:00 +18°C° 0.7 mm 4 mps 732 mmHg 94%
    05:00 +17°C° 0.7 mm 5 mps 731 mmHg 95%
    06:00 +17°C° 0.5 mm 5 mps 731 mmHg 94%
    07:00 +17°C° 0.5 mm 5 mps 731 mmHg 93%
    08:00 +17°C° 0 mm 5 mps 731 mmHg 92%
    09:00 +17°C° 0.3 mm 5 mps 731 mmHg 86%
    10:00 +19°C° 0.3 mm 6 mps 731 mmHg 80%
    11:00 +19°C° 0.3 mm 6 mps 732 mmHg 74%
    12:00 +19°C° 0 mm 6 mps 732 mmHg 66%
    13:00 +20°C° 0 mm 6 mps 732 mmHg 59%
    14:00 +20°C° 0 mm 6 mps 733 mmHg 52%
    15:00 +19°C° 0 mm 6 mps 733 mmHg 54%
    16:00 +19°C° 0 mm 5 mps 733 mmHg 56%
    17:00 +18°C° 0 mm 4 mps 734 mmHg 58%
    18:00 +15°C° 0 mm 4 mps 734 mmHg 63%
    19:00 +14°C° 0 mm 3 mps 734 mmHg 69%
    20:00 +12°C° 0 mm 3 mps 735 mmHg 74%
    21:00 +11°C° 0 mm 3 mps 735 mmHg 77%
    22:00 +11°C° 0 mm 3 mps 735 mmHg 79%
    23:00 +10°C° 0 mm 3 mps 736 mmHg 82%

    Tomorrow, 22 August, Wednesday

    Time Temperature Precipitation Wind Pressure Humidity
    00:00 +10°C° 0 mm 3 mps 736 mmHg 82%
    01:00 +10°C° 0 mm 3 mps 736 mmHg 83%
    02:00 +9°C° 0 mm 3 mps 737 mmHg 84%
    03:00 +9°C° 0 mm 3 mps 737 mmHg 85%
    04:00 +9°C° 0 mm 3 mps 738 mmHg 86%
    05:00 +8°C° 0 mm 4 mps 738 mmHg 87%
    06:00 +10°C° 0 mm 4 mps 738 mmHg 81%
    07:00 +11°C° 0 mm 4 mps 739 mmHg 74%
    08:00 +13°C° 0 mm 5 mps 739 mmHg 68%
    09:00 +14°C° 0 mm 5 mps 740 mmHg 62%
    10:00 +15°C° 0 mm 5 mps 740 mmHg 56%
    11:00 +16°C° 0 mm 5 mps 741 mmHg 51%
    12:00 +16°C° 0 mm 5 mps 741 mmHg 49%
    13:00 +16°C° 0 mm 5 mps 741 mmHg 48%
    14:00 +17°C° 0 mm 5 mps 741 mmHg 46%
    15:00 +17°C° 0 mm 4 mps 741 mmHg 49%
    16:00 +17°C° 0 mm 4 mps 742 mmHg 51%
    17:00 +17°C° 0 mm 4 mps 742 mmHg 54%
    18:00 +14°C° 0 mm 3 mps 742 mmHg 61%
    19:00 +13°C° 0 mm 2 mps 743 mmHg 68%
    20:00 +10°C° 0 mm 2 mps 743 mmHg 75%
    21:00 +9°C° 0 mm 2 mps 743 mmHg 77%
    22:00 +9°C° 0 mm 2 mps 744 mmHg 80%
    23:00 +8°C° 0 mm 2 mps 744 mmHg 82%

    Day after tomorrow, 23 August, Thursday

    Time Temperature Precipitation Wind Pressure Humidity
    00:00 +8°C° 0 mm 2 mps 744 mmHg 83%
    01:00 +8°C° 0 mm 2 mps 744 mmHg 84%
    02:00 +7°C° 0 mm 2 mps 744 mmHg 86%
    03:00 +7°C° 0 mm 2 mps 744 mmHg 86%
    04:00 +7°C° 0 mm 2 mps 745 mmHg 87%
    05:00 +7°C° 0 mm 2 mps 745 mmHg 87%
    06:00 +9°C° 0 mm 2 mps 745 mmHg 80%
    07:00 +12°C° 0 mm 2 mps 745 mmHg 72%
    08:00 +14°C° 0 mm 2 mps 745 mmHg 65%
    09:00 +16°C° 0 mm 2 mps 745 mmHg 60%
    10:00 +18°C° 0 mm 3 mps 745 mmHg 54%
    11:00 +19°C° 0 mm 3 mps 745 mmHg 49%
    12:00 +20°C° 0 mm 3 mps 744 mmHg 48%
    13:00 +20°C° 0 mm 3 mps 744 mmHg 47%
    14:00 +21°C° 0 mm 3 mps 744 mmHg 46%
    15:00 +20°C° 0 mm 3 mps 744 mmHg 50%
    16:00 +20°C° 0 mm 2 mps 743 mmHg 54%
    17:00 +20°C° 0 mm 2 mps 743 mmHg 58%
    18:00 +17°C° 0 mm 2 mps 743 mmHg 65%
    19:00 +15°C° 0 mm 2 mps 743 mmHg 72%
    20:00 +13°C° 0 mm 2 mps 743 mmHg 79%
    21:00 +13°C° 0 mm 2 mps 743 mmHg 81%
    22:00 +12°C° 0 mm 2 mps 743 mmHg 84%
    23:00 +10°C° 0 mm 2 mps 743 mmHg 86%

    24 August, Friday

    Time Temperature Precipitation Wind Pressure Humidity
    00:00 +10°C° 0 mm 2 mps 743 mmHg 89%
    01:00 +10°C° 0 mm 2 mps 743 mmHg 91%
    02:00 +9°C° 0 mm 2 mps 743 mmHg 93%
    03:00 +9°C° 0 mm 2 mps 743 mmHg 94%
    04:00 +9°C° 0 mm 2 mps 743 mmHg 95%
    05:00 +8°C° 0 mm 2 mps 743 mmHg 95%
    06:00 +12°C° 0 mm 2 mps 743 mmHg 87%
    07:00 +14°C° 0 mm 2 mps 743 mmHg 78%
    08:00 +16°C° 0 mm 2 mps 743 mmHg 70%
    09:00 +17°C° 0 mm 3 mps 743 mmHg 64%
    10:00 +19°C° 0 mm 3 mps 743 mmHg 57%
    11:00 +21°C° 0 mm 3 mps 742 mmHg 51%
    12:00 +21°C° 0 mm 3 mps 742 mmHg 49%
    13:00 +22°C° 0 mm 3 mps 742 mmHg 48%
    14:00 +24°C° 0 mm 3 mps 742 mmHg 46%
    15:00 +22°C° 0 mm 3 mps 741 mmHg 51%
    16:00 +23°C° 0 mm 2 mps 741 mmHg 56%
    17:00 +21°C° 0 mm 2 mps 741 mmHg 60%
    18:00 +19°C° 0 mm 2 mps 741 mmHg 67%
    19:00 +17°C° 0 mm 2 mps 741 mmHg 74%
    20:00 +15°C° 0 mm 2 mps 741 mmHg 81%
    21:00 +14°C° 0 mm 2 mps 741 mmHg 83%
    22:00 +14°C° 0 mm 2 mps 741 mmHg 85%
    23:00 +13°C° 0 mm 2 mps 741 mmHg 87%

    25 August, Saturday

    Time Temperature Precipitation Wind Pressure Humidity
    00:00 +13°C° 0 mm 2 mps 740 mmHg 88%
    01:00 +12°C° 0 mm 2 mps 740 mmHg 89%
    02:00 +12°C° 0 mm 2 mps 740 mmHg 90%
    03:00 +12°C° 0 mm 2 mps 740 mmHg 90%
    04:00 +12°C° 0 mm 2 mps 740 mmHg 90%
    05:00 +11°C° 0 mm 3 mps 740 mmHg 89%
    06:00 +13°C° 0 mm 3 mps 740 mmHg 82%
    07:00 +16°C° 0 mm 3 mps 740 mmHg 74%
    08:00 +17°C° 0 mm 4 mps 740 mmHg 67%
    09:00 +19°C° 0 mm 4 mps 740 mmHg 60%
    10:00 +21°C° 0 mm 4 mps 740 mmHg 53%
    11:00 +23°C° 0 mm 5 mps 740 mmHg 47%
    12:00 +23°C° 0 mm 5 mps 740 mmHg 46%
    13:00 +25°C° 0 mm 5 mps 740 mmHg 45%
    14:00 +25°C° 0 mm 5 mps 739 mmHg 43%
    15:00 +25°C° 0 mm 4 mps 739 mmHg 48%
    16:00 +24°C° 0 mm 3 mps 739 mmHg 53%
    17:00 +22°C° 0 mm 3 mps 739 mmHg 57%
    18:00 +21°C° 0 mm 3 mps 739 mmHg 63%
    19:00 +19°C° 0 mm 3 mps 739 mmHg 68%
    20:00 +17°C° 0 mm 3 mps 739 mmHg 74%
    21:00 +17°C° 0 mm 3 mps 739 mmHg 75%
    22:00 +16°C° 0 mm 3 mps 739 mmHg 77%
    23:00 +14°C° 0 mm 3 mps 739 mmHg 78%

    26 August, Sunday

    Time Temperature Precipitation Wind Pressure Humidity
    00:00 +14°C° 0 mm 3 mps 739 mmHg 79%
    01:00 +14°C° 0 mm 3 mps 739 mmHg 80%
    02:00 +13°C° 0 mm 3 mps 740 mmHg 81%
    03:00 +13°C° 0 mm 3 mps 740 mmHg 82%
    04:00 +13°C° 0 mm 3 mps 740 mmHg 83%
    05:00 +13°C° 0 mm 2 mps 740 mmHg 84%
    06:00 +14°C° 0 mm 3 mps 740 mmHg 78%
    07:00 +17°C° 0 mm 3 mps 740 mmHg 72%
    08:00 +19°C° 0 mm 3 mps 740 mmHg 66%
    09:00 +20°C° 0 mm 3 mps 741 mmHg 60%
    10:00 +22°C° 0 mm 4 mps 741 mmHg 54%
    11:00 +25°C° 0 mm 4 mps 741 mmHg 47%
    12:00 +26°C° 0 mm 4 mps 740 mmHg 45%
    13:00 +26°C° 0 mm 4 mps 740 mmHg 44%
    14:00 +27°C° 0 mm 4 mps 740 mmHg 42%
    15:00 +26°C° 0 mm 3 mps 740 mmHg 47%
    16:00 +25°C° 0 mm 3 mps 740 mmHg 52%
    17:00 +25°C° 0 mm 2 mps 740 mmHg 57%
    18:00 +23°C° 0 mm 2 mps 740 mmHg 62%
    19:00 +20°C° 0 mm 2 mps 740 mmHg 68%
    20:00 +18°C° 0 mm 3 mps 740 mmHg 73%
    21:00 +17°C° 0 mm 3 mps 740 mmHg 73%
    22:00 +17°C° 0 mm 3 mps 740 mmHg 73%
    23:00 +16°C° 0 mm 3 mps 740 mmHg 73%
    Show more